Weather History for Houston Hull, TX

Change the Weather History Date:

Saturday, December 21, 2013

  Actual Average Record
Temperature  
Mean Temperature 64 °F -  
Max Temperature 75 °F 66 °F 82 °F (1951)
Min Temperature 52 °F 45 °F 23 °F (1973)
Degree Days  
Heating Degree Days 2    
Growing Degree Days 14 (Base 50)    
Moisture  
Dew Point 65 °F    
Average Humidity 89    
Maximum Humidity 100    
Minimum Humidity 78    
Precipitation  
Precipitation 0.47 in - - ()
Sea Level Pressure  
Sea Level Pressure 29.68 in    
Wind  
Wind Speed 13 mph (SSW)    
Max Wind Speed 21 mph    
Max Gust Speed 37 mph    
Visibility 8 miles    
Events Rain , Thunderstorm    
Averages and records for this station are not official NWS values.
T = Trace of Precipitation, MM = Missing Value Source: NWS Daily Summary

Daily Weather History Graph

Daily Weather History Graph

Search for Another Location

Airport:

Trip Planner

Search our weather history database for the weather conditions in past years. The results will help you decide how hot, cold, wet, or windy it might be!

Date:

Astronomy

Dec. 21, 2013 Rise Set
Actual Time 7:13 AM CST 5:28 PM CST
Civil Twilight 6:47 AM CST 5:54 PM CST
Nautical Twilight 6:17 AM CST 6:24 PM CST
Astronomical Twilight 5:48 AM CST 6:53 PM CST
Moon 9:28 PM CST (12/21) 9:55 AM CST (12/21)
Length of Visible Light 11h 07m
Length of Day
10h 14m
Waning Gibbous, 84% of the Moon is Illuminated
Dec 21
Waning Gibbous
Dec 25
Last Quarter
Jan 1
New
Jan 7
First Quarter
Jan 15
Full

Hourly Weather History & Observations

Time (CST) Temp. Dew Point Humidity Pressure Visibility Wind Dir Wind Speed Gust Speed Precip Events Conditions
12:53 AM 75.0 °F 70.0 °F 84% 29.72 in 10.0 mi South 20.7 mph 27.6 mph N/A   Overcast
1:53 AM 73.9 °F 70.0 °F 87% 29.70 in 10.0 mi SSE 18.4 mph 25.3 mph 0.00 in Rain Light Rain
2:53 AM 75.0 °F 69.1 °F 82% 29.68 in 10.0 mi South 19.6 mph 26.5 mph N/A   Overcast
3:53 AM 75.0 °F 69.1 °F 82% 29.69 in 10.0 mi South 16.1 mph 26.5 mph N/A   Overcast
4:24 AM 75.2 °F 69.8 °F 83% 29.69 in 10.0 mi South 15.0 mph 23.0 mph N/A   Overcast
4:37 AM 73.4 °F 69.8 °F 88% 29.69 in 10.0 mi South 10.4 mph 19.6 mph 0.00 in   Overcast
4:53 AM 73.9 °F 69.1 °F 85% 29.69 in 10.0 mi South 11.5 mph - 0.00 in   Overcast
5:02 AM 73.4 °F 69.8 °F 88% 29.67 in 10.0 mi South 11.5 mph - N/A   Overcast
5:50 AM 73.4 °F 69.8 °F 88% 29.66 in 9.0 mi South 12.7 mph 18.4 mph 0.01 in Rain Light Rain
5:53 AM 73.9 °F 69.1 °F 85% 29.67 in 9.0 mi South 9.2 mph 18.4 mph 0.01 in Rain Light Rain
6:50 AM 73.4 °F 69.8 °F 88% 29.66 in 9.0 mi South 10.4 mph - 0.00 in Rain Light Rain
6:53 AM 73.0 °F 70.0 °F 90% 29.67 in 9.0 mi South 13.8 mph 18.4 mph 0.00 in Rain Light Rain
7:53 AM 73.0 °F 70.0 °F 90% 29.67 in 6.0 mi South 9.2 mph - 0.02 in Rain Light Rain
8:53 AM 73.0 °F 70.0 °F 90% 29.67 in 2.5 mi SSW 10.4 mph - 0.07 in Rain Rain
9:09 AM 73.4 °F 69.8 °F 88% 29.65 in 5.0 mi South 13.8 mph 19.6 mph 0.02 in Rain Light Rain
9:18 AM 73.4 °F 71.6 °F 94% 29.65 in 4.0 mi South 10.4 mph - 0.04 in Rain , Thunderstorm Light Rain
9:28 AM 73.4 °F 71.6 °F 94% 29.65 in 6.0 mi SSW 9.2 mph - 0.04 in Rain , Thunderstorm Light Thunderstorms and Rain
9:35 AM 73.4 °F 71.6 °F 94% 29.65 in 1.8 mi South 11.5 mph - 0.12 in Rain , Thunderstorm Heavy Thunderstorms and Rain
9:50 AM 73.4 °F 71.6 °F 94% 29.65 in 3.0 mi South 13.8 mph 24.2 mph 0.20 in Rain , Thunderstorm Light Thunderstorms and Rain
9:53 AM 73.0 °F 71.1 °F 93% 29.65 in 5.0 mi SSW 13.8 mph 24.2 mph 0.20 in Rain , Thunderstorm Light Thunderstorms and Rain
10:10 AM 73.4 °F 71.6 °F 94% 29.65 in 9.0 mi SSW 13.8 mph - 0.00 in   Overcast
10:23 AM 73.4 °F 71.6 °F 94% 29.63 in 7.0 mi South 15.0 mph - 0.00 in   Overcast
10:53 AM 73.9 °F 71.1 °F 91% 29.60 in 8.0 mi South 17.3 mph 23.0 mph 0.00 in   Mostly Cloudy
11:53 AM 75.0 °F 71.1 °F 87% 29.61 in 8.0 mi SSW 18.4 mph 21.9 mph 0.00 in   Overcast
12:20 PM 75.2 °F 71.6 °F 89% 29.60 in 7.0 mi SSW 17.3 mph 21.9 mph 0.00 in Rain Light Rain
12:53 PM 75.0 °F 71.1 °F 87% 29.62 in 7.0 mi SW 17.3 mph - 0.00 in Rain Light Rain
1:36 PM 62.6 °F 60.8 °F 94% 29.63 in 2.5 mi NW 16.1 mph 36.8 mph 0.14 in Rain , Thunderstorm Heavy Rain
1:50 PM 60.8 °F 57.2 °F 88% 29.63 in 10.0 mi WNW 10.4 mph - 0.15 in Rain , Thunderstorm Light Rain
1:53 PM 62.1 °F 57.9 °F 86% 29.63 in 10.0 mi West 8.1 mph - 0.15 in Rain , Thunderstorm Light Rain
2:11 PM 62.6 °F 57.2 °F 82% 29.62 in 10.0 mi WNW 11.5 mph - N/A   Overcast
2:53 PM 63.0 °F 57.9 °F 84% 29.65 in 10.0 mi WSW 4.6 mph - N/A   Overcast
3:00 PM 62.6 °F 57.2 °F 82% 29.64 in 10.0 mi WNW 9.2 mph - N/A   Overcast
3:53 PM 64.0 °F 57.9 °F 80% 29.65 in 10.0 mi West 3.5 mph - N/A   Overcast
4:53 PM 64.0 °F 57.9 °F 80% 29.65 in 10.0 mi Variable 4.6 mph - N/A   Clear
5:53 PM 62.1 °F 55.0 °F 78% 29.68 in 10.0 mi NW 3.5 mph - N/A   Clear
6:53 PM 55.0 °F 53.1 °F 93% 29.72 in 10.0 mi Calm Calm - N/A   Clear
7:53 PM 54.0 °F 53.1 °F 97% 29.75 in 10.0 mi Calm Calm - N/A   Clear
8:11 PM 53.6 °F 51.8 °F 94% 29.76 in 1.8 mi Calm Calm - N/A   Clear
8:21 PM 53.6 °F 53.6 °F 100% 29.75 in 4.0 mi Calm Calm - N/A   Clear
8:53 PM 52.0 °F 52.0 °F 100% 29.78 in 10.0 mi Calm Calm - N/A   Clear
9:53 PM 55.0 °F 54.0 °F 96% 29.79 in 10.0 mi Calm Calm - N/A   Unknown
10:53 PM 57.0 °F 55.0 °F 93% 29.78 in 10.0 mi ENE 5.8 mph - 0.00 in Rain Light Rain
11:53 PM 57.0 °F 55.9 °F 96% 29.84 in 10.0 mi Calm Calm - 0.02 in   Scattered Clouds